Mount Shasta Past Weather

Last 30 Days

 
High: 65ºf @11:54 AM    Low: 57ºf @7:54 AM     Approx. Precipitation / Rain Total: in.
Time (PDT)Temp. (ºf)Humidity (%)Dew Point (ºf)Barometer (inHG)Wind Speed (mph)Wind DirectionWind Gust (mph)1hr. Precip / Rain Total (in.)Snow Depth
11:54 AM657054.97-4.34se13.9--
9:54 AM588653.83-4.34se12.17--
8:54 AM578953.79-4.34se9.56--
7:54 AM578853.48-2.61se12.17--
6:54 AM588252.53-4.34se9.56--
5:54 AM588152.2-2.61se7.82--
4:54 AM606949.8-3.48se8.69--
3:54 AM616448.73-3.48se10.43--
2:54 AM625847.05-3.48se10.43--
1:54 AM635245.09-3.48se8.69--
12:54 AM644944.45-3.48se10.43--
High: 78ºf @4:54 PM    Low: 63ºf @6:54 AM     Approx. Precipitation / Rain Total: in.
Time (PDT)Temp. (ºf)Humidity (%)Dew Point (ºf)Barometer (inHG)Wind Speed (mph)Wind DirectionWind Gust (mph)1hr. Precip / Rain Total (in.)Snow Depth
11:54 PM664845.74-3.48se10.43--
10:54 PM684747.01-1.74se12.17--
9:54 PM694345.56-4.34se11.3--
7:54 PM714146.1-2.61sse14.77--
6:54 PM753847.65-2.61s14.77--
5:54 PM773647.98-2.61s13.9--
4:54 PM783648.86-1.74sse11.3--
3:54 PM783447.34-4.34s18.25--
2:54 PM783648.86-6.08se14.77--
1:54 PM773748.71-5.21se16.51--
12:54 PM764351.87-6.08se16.51--
11:54 AM754753.38-2.61sse12.17--
10:54 AM715352.99-3.48sse15.64--
9:54 AM695753.12-5.21ese11.3--
8:54 AM686053.59-6.08se12.17--
7:54 AM676353.98-4.34se11.3--
6:54 AM636952.66-2.61sse9.56--
5:54 AM636751.86-3.48se7.82--
3:54 AM656352.09-3.48se10.43--
2:54 AM666051.71-4.34se9.56--
1:54 AM665549.36-4.34se8.69--
12:54 AM645949.38-3.48se7.82--
High: 75ºf @1:54 PM    Low: 46ºf @3:54 AM     Approx. Precipitation / Rain Total: in.
Time (PDT)Temp. (ºf)Humidity (%)Dew Point (ºf)Barometer (inHG)Wind Speed (mph)Wind DirectionWind Gust (mph)1hr. Precip / Rain Total (in.)Snow Depth
11:54 PM616348.31-0.87sse4.34--
10:54 PM606749.01-0.87se3.48--
8:54 PM626349.26---3.48--
7:54 PM684847.57-1.74se6.95--
6:54 PM714347.36-2.61sse8.69--
5:54 PM724147-1.74sse12.17--
4:54 PM733946.57-4.34se12.17--
3:54 PM733946.57-4.34se11.3--
2:54 PM743947.46-5.21se13.9--
1:54 PM753847.65-3.48sse13.9--
12:54 PM724147-2.61s12.17--
11:54 AM704547.67-2.61sse8.69--
10:54 AM704648.26-1.74s10.43--
9:54 AM645044.98-4.34sse9.56--
8:54 AM635446.09-2.61se7.82--
7:54 AM585943.75-1.74sse4.34--
6:54 AM477940.83-0.87ene2.61--
5:54 AM487841.47-0.87ne2.61--
4:54 AM497039.65-0.87ssw4.34--
3:54 AM467739.2-0.87ene4.34--
2:54 AM506639.09---2.61--
1:54 AM506438.31---2.61--
12:54 AM526038.55---5.21--
High: 61ºf @5:54 PM    Low: 50ºf @5:54 AM     Approx. Precipitation / Rain Total: in.
Time (PDT)Temp. (ºf)Humidity (%)Dew Point (ºf)Barometer (inHG)Wind Speed (mph)Wind DirectionWind Gust (mph)1hr. Precip / Rain Total (in.)Snow Depth
11:54 PM555338.19-2.61se6.95--
10:54 PM555137.21-2.61sse9.56--
9:54 PM555338.19---7.82--
8:54 PM574334.73-1.74sse9.56--
7:54 PM593632.09-4.34se9.56--
6:54 PM603532.27-4.34se9.56--
5:54 PM613432.43-3.48se11.3--
4:54 PM603632.97-5.21se10.43--
3:54 PM603632.97-4.34se10.43--
2:54 PM604035.61-2.61se9.56--
1:54 PM604337.44-3.48se8.69--
12:54 PM614539.5-3.48se12.17--
11:54 AM564937.11-5.21se13.9--
10:54 AM545437.73-6.08ese12.17--
9:54 AM525536.34-6.08se14.77--
8:54 AM515434.95-6.95ese13.9--
7:54 AM515334.48-6.95ese14.77--
6:54 AM514731.49-6.95ese13.03--
5:54 AM503825.4-4.34se9.56--
4:54 AM513625-5.21se10.43--
3:54 AM513322.92-4.34ese9.56--
2:54 AM533123.19-4.34se10.43--
1:54 AM543124.06-4.34se9.56--
12:54 AM543627.66-4.34ese7.82--
High: 62ºf @3:54 PM    Low: 41ºf @12:54 AM     Approx. Precipitation / Rain Total: in.
Time (PDT)Temp. (ºf)Humidity (%)Dew Point (ºf)Barometer (inHG)Wind Speed (mph)Wind DirectionWind Gust (mph)1hr. Precip / Rain Total (in.)Snow Depth
11:54 PM525636.79---6.08--
10:54 PM553829.86-3.48ese6.95--
9:54 PM554131.74-3.48ese9.56--
8:54 PM563931.4-3.48ese8.69--
7:54 PM573730.99-1.74sse10.43--
6:54 PM603230.06-2.61se11.3--
5:54 PM622525.78-2.61se11.3--
4:54 PM612726.78-5.21se12.17--
3:54 PM622828.52-5.21se12.17--
2:54 PM623030.21-5.21se13.03--
1:54 PM603129.28-5.21se13.9--
12:54 PM593531.39-4.34se10.43--
11:54 AM584134.43-2.61sse13.03--
10:54 AM564836.59-3.48se11.3--
9:54 AM535537.27-4.34ese11.3--
8:54 AM476937.36-4.34se8.69--
7:54 AM448138.55-3.48ese6.08--
6:54 AM429340.12---3.48--
5:54 AM429139.57---3.48--
4:54 AM428939---4.34--
3:54 AM438438.5-1.74nnw5.21--
2:54 AM428738.42---3.48--
1:54 AM428638.12-0.87nne5.21--
12:54 AM418938.01-0.87nw5.21--
High: 64ºf @3:54 PM    Low: 41ºf @5:54 AM     Approx. Precipitation / Rain Total: in.
Time (PDT)Temp. (ºf)Humidity (%)Dew Point (ºf)Barometer (inHG)Wind Speed (mph)Wind DirectionWind Gust (mph)1hr. Precip / Rain Total (in.)Snow Depth
11:54 PM418837.72-1.74nw6.08--
10:54 PM428236.91-1.74nnw8.69--
9:54 PM418637.14-1.74nnw11.3--
8:54 PM428537.82-3.48n12.17--
7:54 PM496136.14-5.21n14.77--
6:54 PM544533.14-3.48n12.17--
5:54 PM612019.65-0.87s8.69--
4:54 PM631616.11-3.48se12.17--
3:54 PM641718.32-5.21se13.9--
2:54 PM642022.13-5.21se13.03--
1:54 PM642527.48-3.48sse13.9--
12:54 PM632627.58-3.48se10.43--
11:54 AM623231.8-3.48s10.43--
10:54 AM604236.84-2.61se7.82--
9:54 AM565740.98-3.48ene6.95--
8:54 AM526239.39-1.74nw4.34--
7:54 AM467438.18-0.87nw4.34--
6:54 AM428738.42-0.87nne3.48--
5:54 AM419138.58-0.87nne4.34--
4:54 AM419439.41-0.87nnw2.61--
3:54 AM439040.27-0.87nnw3.48--
2:54 AM438739.4---3.48--
1:54 AM448439.48-1.74n6.08--
12:54 AM448439.48-0.87nnw6.08--
High: 62ºf @2:54 PM    Low: 44ºf @10:54 PM     Approx. Precipitation / Rain Total: in.
Time (PDT)Temp. (ºf)Humidity (%)Dew Point (ºf)Barometer (inHG)Wind Speed (mph)Wind DirectionWind Gust (mph)1hr. Precip / Rain Total (in.)Snow Depth
11:54 PM448840.68-2.61nw9.56--
10:54 PM449141.54-1.74wnw5.21--
9:54 PM468642.05-2.61n6.95--
8:54 PM525335.4-2.61wnw7.82--
7:54 PM554835.67---7.82--
6:54 PM613835.21-0.87s6.95--
5:54 PM593732.77-1.74s12.17--
4:54 PM613331.69-3.48sse12.17--
3:54 PM613230.93-4.34se13.9--
2:54 PM623433.31-6.08se17.38--
1:54 PM603733.65-4.34se13.9--
12:54 PM594034.71-3.48sse14.77--
11:54 AM574736.97-5.21se13.9--
10:54 AM554835.67-6.08se16.51--
9:54 AM525536.34-5.21se11.3--
8:54 AM506237.5-0.87wnw4.34--
6:54 AM457136.17-0.87nw4.34--
5:54 AM457236.53-0.87nw4.34--
4:54 AM466836.04-1.74nw6.95--
3:54 AM476636.24-0.87nw9.56--
2:54 AM476535.85-1.74nnw9.56--
1:54 AM486235.61-2.61nw11.3--
12:54 AM495834.87-2.61nw8.69--
High: 71ºf @4:54 PM    Low: 43ºf @5:54 AM     Approx. Precipitation / Rain Total: in.
Time (PDT)Temp. (ºf)Humidity (%)Dew Point (ºf)Barometer (inHG)Wind Speed (mph)Wind DirectionWind Gust (mph)1hr. Precip / Rain Total (in.)Snow Depth
11:54 PM505333.55-2.61nw11.3--
10:54 PM524732.4-4.34nnw15.64--
9:54 PM534632.78-3.48nw13.03--
8:54 PM544533.14-4.34nw14.77--
7:54 PM564333.82-4.34nw14.77--
6:54 PM613734.54-4.34nw18.25--
5:54 PM682631.83-3.48wnw13.9--
4:54 PM712735.33-1.74wsw6.95--
3:54 PM692026.26-4.34se17.38--
2:54 PM692430.7-3.48se11.3--
1:54 PM692733.62-3.48se10.43--
12:54 PM703238.78-2.61wnw8.69--
11:54 AM653738.09-4.34nw8.69--
10:54 AM634138.93-2.61nw8.69--
9:54 AM594638.25-1.74wnw8.69--
8:54 AM555137.21-2.61nw7.82--
6:54 AM466635.29-0.87nnw5.21--
5:54 AM436933.54-1.74nw6.08--
4:54 AM446432.62-0.87nw7.82--
3:54 AM475933.42-2.61nnw8.69--
1:54 AM495433.09-2.61nw9.56--
12:54 AM505132.59-2.61nw10.43--
High: 77ºf @2:54 PM    Low: 43ºf @5:54 AM     Approx. Precipitation / Rain Total: in.
Time (PDT)Temp. (ºf)Humidity (%)Dew Point (ºf)Barometer (inHG)Wind Speed (mph)Wind DirectionWind Gust (mph)1hr. Precip / Rain Total (in.)Snow Depth
11:54 PM534431.68-3.48nw13.03--
10:54 PM554332.92-4.34nw13.9--
9:54 PM564233.24-2.61nw12.17--
8:54 PM603834.32-3.48nw14.77--
7:54 PM633635.62-4.34nw12.17--
6:54 PM693137.1-3.48nw12.17--
5:54 PM712937.13-3.48nnw15.64--
4:54 PM722635.23-4.34n14.77--
3:54 PM752536.78-3.48wnw11.3--
2:54 PM772639.47-3.48nw9.56--
1:54 PM762638.62-3.48nnw10.43--
12:54 PM742636.93-3.48nw16.51--
11:54 AM713138.83-5.21nw13.9--
10:54 AM673639.16-2.61wnw13.03--
9:54 AM624339.25-2.61wnw10.43--
8:54 AM585039.47-1.74wnw9.56--
7:54 AM535738.18-3.48nw11.3--
6:54 AM486436.41-0.87w6.08--
5:54 AM437334.95-0.87nne4.34--
4:54 AM447034.85-0.87nnw2.61--
3:54 AM457035.81---2.61--
2:54 AM486034.79-0.87nw6.95--
1:54 AM515334.48-1.74ene9.56--
12:54 AM535235.85-4.34nw13.03--
High: 84ºf @1:54 PM    Low: 54ºf @11:54 PM     Approx. Precipitation / Rain Total: in.
Time (PDT)Temp. (ºf)Humidity (%)Dew Point (ºf)Barometer (inHG)Wind Speed (mph)Wind DirectionWind Gust (mph)1hr. Precip / Rain Total (in.)Snow Depth
11:54 PM545035.78-4.34nw13.9--
10:54 PM574938.03-2.61nw15.64--
8:54 PM634239.54-4.34nw13.03--
7:54 PM673437.7-4.34nnw15.64--
6:54 PM742232.73-5.21nnw15.64--
5:54 PM781932.39-3.48n12.17--
4:54 PM791730.45-4.34n13.03--
3:54 PM821631.37-4.34n13.9--
2:54 PM831936.47-2.61nw10.43--
1:54 PM842139.84-2.61nnw10.43--
12:54 PM832240.21-1.74w13.9--
11:54 AM782943.15-3.48wnw11.3--
10:54 AM733442.96-4.34wnw12.17--
9:54 AM714146.1-4.34nw11.3--
8:54 AM684747.01-0.87wnw9.56--
7:54 AM645145.5-1.74nnw9.56--
6:54 AM576244.11-0.87nw7.82--
5:54 AM575842.37-1.74nw7.82--
4:54 AM576043.25-0.87nne5.21--
2:54 AM615444.23-0.87nw6.95--
1:54 AM615243.25-1.74n6.08--
12:54 AM634843-0.87ne13.9--
High: 87ºf @3:54 PM    Low: 57ºf @5:54 AM     Approx. Precipitation / Rain Total: in.
Time (PDT)Temp. (ºf)Humidity (%)Dew Point (ºf)Barometer (inHG)Wind Speed (mph)Wind DirectionWind Gust (mph)1hr. Precip / Rain Total (in.)Snow Depth
11:54 PM674142.52-3.48nnw11.3--
10:54 PM683942.11-1.74nnw13.03--
9:54 PM723542.84-3.48nw13.9--
8:54 PM763344.8-4.34nnw13.9--
7:54 PM803449.09-0.87nnw6.95--
5:54 PM853150.94-2.61wnw7.82--
4:54 PM863151.81-1.74nw8.69--
3:54 PM873051.78-2.61wnw10.43--
2:54 PM873051.78-3.48nw8.69--
1:54 PM863252.67-3.48nw10.43--
12:54 PM843452.58-2.61wnw7.82--
11:54 AM823853.86-2.61wnw9.56--
10:54 AM784253.03-1.74nw10.43--
9:54 AM744651.89-2.61nnw10.43--
8:54 AM715051.41-2.61nnw9.56--
7:54 AM695552.15-1.74nw5.21--
6:54 AM636450.63-0.87ne4.34--
5:54 AM577549.15---4.34--
4:54 AM616549.15---5.21--
2:54 AM635948.44-2.61nw7.82--
1:54 AM675449.8-2.61n9.56--
12:54 AM684948.12-2.61nnw12.17--
High: 93ºf @2:54 PM    Low: 55ºf @5:54 AM     Approx. Precipitation / Rain Total: in.
Time (PDT)Temp. (ºf)Humidity (%)Dew Point (ºf)Barometer (inHG)Wind Speed (mph)Wind DirectionWind Gust (mph)1hr. Precip / Rain Total (in.)Snow Depth
11:54 PM694647.35-2.61nw10.43--
10:54 PM714347.36-3.48nw10.43--
9:54 PM753847.65-3.48nw13.03--
8:54 PM783447.34-1.74nw13.9--
7:54 PM822845.65-3.48nnw11.3--
6:54 PM872546.89-2.61n6.95--
5:54 PM882850.77-2.61wnw6.95--
4:54 PM902448.32-1.74ssw9.56--
3:54 PM922045.14-2.61sse10.43--
2:54 PM932248.49-2.61sse8.69--
1:54 PM922247.66-2.61se8.69--
12:54 PM903256.13-1.74nw5.21--
11:54 AM863655.9-1.74wnw8.69--
10:54 AM814054.38-3.48nw9.56--
9:54 AM804456.1-1.74wnw7.82--
8:54 AM774755.2-1.74nw7.82--
7:54 AM715654.5-0.87ene4.34--
5:54 AM557246.14-2.61ne4.34--
4:54 AM567046.35-2.61ne4.34--
3:54 AM586747.1-2.61ne4.34--
2:54 AM596547.25-2.61ne4.34--
1:54 AM616247.88-1.74ne4.34--
12:54 AM635647.05-1.74nne5.21--
High: 94ºf @2:54 PM    Low: 54ºf @5:54 AM     Approx. Precipitation / Rain Total: in.
Time (PDT)Temp. (ºf)Humidity (%)Dew Point (ºf)Barometer (inHG)Wind Speed (mph)Wind DirectionWind Gust (mph)1hr. Precip / Rain Total (in.)Snow Depth
11:54 PM644944.45-1.74ne4.34--
10:54 PM664644.62-1.74n4.34--
9:54 PM694647.35-1.74nne3.48--
8:54 PM753545.47-1.74nne7.82--
7:54 PM852039.41-5.21se12.17--
6:54 PM891738.49-4.34se11.3--
5:54 PM911740.1-3.48se11.3--
4:54 PM921639.34-4.34se12.17--
3:54 PM931538.48-4.34se13.9--
2:54 PM941640.93-4.34se13.03--
12:54 PM922348.85-4.34se10.43--
11:54 AM902650.47-4.34se10.43--
10:54 AM882345.52-3.48se8.69--
9:54 AM853655.02---2.61--
8:54 AM784856.7---2.61--
7:54 AM725655.43---3.48--
6:54 AM597249.98---4.34--
5:54 AM547646.61-1.74ne2.61--
4:54 AM567247.1---3.48--
3:54 AM577047.31-0.87ne4.34--
2:54 AM596547.25-0.87ne3.48--
12:54 AM625746.59-2.61ne4.34--
High: 96ºf @2:54 PM    Low: 55ºf @5:54 AM     Approx. Precipitation / Rain Total: in.
Time (PDT)Temp. (ºf)Humidity (%)Dew Point (ºf)Barometer (inHG)Wind Speed (mph)Wind DirectionWind Gust (mph)1hr. Precip / Rain Total (in.)Snow Depth
11:54 PM645447.02-1.74ne3.48--
10:54 PM684646.44-0.87ne4.34--
9:54 PM714548.58-0.87nnw5.21--
8:54 PM754049.02-0.87n4.34--
7:54 PM862343.86-1.74ese6.95--
6:54 PM922146.43-0.87sse6.08--
5:54 PM932045.95-1.74ssw8.69--
4:54 PM931843.19-4.34se9.56--
3:54 PM951743.3-3.48se8.69--
2:54 PM961540.85-3.48se10.43--
1:54 PM951540.06-4.34se10.43--
12:54 PM951540.06-2.61sse8.69--
10:54 AM872849.92-0.87sw4.34--
9:54 AM843452.58-0.87nw5.21--
8:54 AM783951.01-1.74nw5.21--
7:54 AM705352.07-1.74ene3.48--
6:54 AM595844.24-2.61ne4.34--
5:54 AM556141.8-2.61ne5.21--
3:54 AM576344.53-3.48ne4.34--
2:54 AM596145.57-1.74ne3.48--
1:54 AM615846.11-0.87ene4.34--
12:54 AM655045.9-0.87ene4.34--
High: 92ºf @2:54 PM    Low: 58ºf @5:54 AM     Approx. Precipitation / Rain Total: in.
Time (PDT)Temp. (ºf)Humidity (%)Dew Point (ºf)Barometer (inHG)Wind Speed (mph)Wind DirectionWind Gust (mph)1hr. Precip / Rain Total (in.)Snow Depth
11:54 PM723542.84-3.48ene6.95--
10:54 PM733342.18-1.74ne8.69--
9:54 PM762840.53-1.74nnw6.95--
8:54 PM753847.65-0.87ene5.21--
7:54 PM822643.71-0.87nnw8.69--
5:54 PM892143.96-2.61wnw6.95--
4:54 PM892245.18-1.74n7.82--
3:54 PM902043.5-1.74wnw6.95--
2:54 PM922247.66-1.74w9.56--
1:54 PM902144.78-2.61nnw7.82--
12:54 PM872546.89-1.74wnw8.69--
11:54 AM842746.39-2.61nw6.95--
10:54 AM793145.76-2.61wnw8.69--
9:54 AM753545.47-1.74wnw8.69--
8:54 AM723844.99-1.74nw6.95--
7:54 AM674846.65---2.61--
6:54 AM596045.13---2.61--
5:54 AM585039.47---6.95--
3:54 AM604639.16---6.08--
2:54 AM633937.65-1.74nw9.56--
1:54 AM653637.39-3.48nne11.3--
12:54 AM653536.68-3.48ne13.03--
High: 86ºf @3:54 PM    Low: 52ºf @5:54 AM     Approx. Precipitation / Rain Total: in.
Time (PDT)Temp. (ºf)Humidity (%)Dew Point (ºf)Barometer (inHG)Wind Speed (mph)Wind DirectionWind Gust (mph)1hr. Precip / Rain Total (in.)Snow Depth
11:54 PM673236.16-4.34n13.9--
10:54 PM692935.41-3.48nnw10.43--
9:54 PM712836.25-3.48nw11.3--
8:54 PM732434.07-2.61nnw12.17--
7:54 PM781932.39-4.34nnw13.03--
6:54 PM841734.48-3.48nnw9.56--
5:54 PM841531.36-2.61nnw11.3--
4:54 PM841734.48-2.61nnw13.03--
3:54 PM861736.09-3.48n13.03--
2:54 PM851938.1-2.61nnw13.03--
1:54 PM842241.04-3.48wnw10.43--
12:54 PM822441.62-2.61nw9.56--
11:54 AM802541-2.61nw11.3--
10:54 AM762638.62-2.61nnw12.17--
9:54 AM722837.1-2.61nw10.43--
8:54 AM713038-2.61nw6.08--
7:54 AM653637.39-0.87wnw5.21--
6:54 AM545437.73-0.87nne3.48--
5:54 AM524631.87-0.87ene3.48--
4:54 AM563629.43---5.21--
3:54 AM602927.66-2.61ne9.56--
2:54 AM612928.52-2.61nne8.69--
1:54 AM642830.24-2.61nne9.56--
12:54 AM643031.94-2.61n8.69--
High: 84ºf @3:54 PM    Low: 44ºf @5:54 AM     Approx. Precipitation / Rain Total: in.
Time (PDT)Temp. (ºf)Humidity (%)Dew Point (ºf)Barometer (inHG)Wind Speed (mph)Wind DirectionWind Gust (mph)1hr. Precip / Rain Total (in.)Snow Depth
11:54 PM663033.67-3.48nw12.17--
10:54 PM673034.54-3.48nw8.69--
9:54 PM682530.86-1.74nw8.69--
8:54 PM722028.73-2.61nw10.43--
7:54 PM761930.76-4.34nnw14.77--
6:54 PM821428.09-3.48n10.43--
5:54 PM821122.31-3.48n12.17--
4:54 PM821122.31-3.48n11.3--
3:54 PM841123.84-3.48n12.17--
2:54 PM831530.57-4.34nnw9.56--
1:54 PM821834.3-4.34nnw11.3--
12:54 PM822138.19-2.61nnw8.69--
11:54 AM792540.15-2.61nw8.69--
10:54 AM743040.59-2.61wnw7.82--
9:54 AM713340.44-1.74wnw8.69--
8:54 AM673941.22-1.74nw6.08--
6:54 AM486235.61-2.61ne5.21--
5:54 AM446834.13-2.61ne4.34--
4:54 AM456835.08-2.61ne5.21--
3:54 AM485833.94-0.87ne3.48--
2:54 AM525033.94-0.87ene3.48--
1:54 AM534230.53---3.48--
12:54 AM573529.62-0.87wnw6.08--
High: 78ºf @6:54 PM    Low: 44ºf @5:54 AM     Approx. Precipitation / Rain Total: in.
Time (PDT)Temp. (ºf)Humidity (%)Dew Point (ºf)Barometer (inHG)Wind Speed (mph)Wind DirectionWind Gust (mph)1hr. Precip / Rain Total (in.)Snow Depth
11:54 PM593027.61---6.95--
10:54 PM612928.52-2.61ne10.43--
9:54 PM622727.64-1.74nne7.82--
8:54 PM643233.55-1.74ene4.34--
7:54 PM702128.27-0.87nw6.08--
6:54 PM781932.39-2.61nw7.82--
5:54 PM762133.23-2.61nnw7.82--
4:54 PM762638.62-2.61wnw8.69--
3:54 PM772740.44-2.61wnw10.43--
2:54 PM762840.53-2.61wnw11.3--
1:54 PM743141.43-3.48nw7.82--
12:54 PM723341.31-2.61wnw8.69--
11:54 AM694144.31-1.74wnw7.82--
10:54 AM644843.91-2.61wnw8.69--
8:54 AM576043.25-2.61wnw6.95--
7:54 AM527042.52-1.74nw5.21--
6:54 AM458641.07---2.61--
5:54 AM448640.09---6.08--
4:54 AM458540.77-0.87ne6.95--
3:54 AM487741.14-1.74nnw8.69--
2:54 AM507241.33-2.61nw8.69--
1:54 AM527042.52-1.74nw8.69--
12:54 AM527142.89-1.74nnw7.82--
High: 76ºf @2:54 PM    Low: 41ºf @4:54 AM     Approx. Precipitation / Rain Total: in.
Time (PDT)Temp. (ºf)Humidity (%)Dew Point (ºf)Barometer (inHG)Wind Speed (mph)Wind DirectionWind Gust (mph)1hr. Precip / Rain Total (in.)Snow Depth
11:54 PM546843.68-2.61nw8.69--
10:54 PM566544.4-1.74nw10.43--
9:54 PM585843.31-1.74nw10.43--
8:54 PM614740.62-2.61nnw11.3--
7:54 PM644642.8-4.34nw12.17--
6:54 PM664443.46-4.34nw13.03--
5:54 PM703843.21-3.48n13.9--
4:54 PM713642.69-4.34n13.9--
3:54 PM733140.57-0.87nne10.43--
2:54 PM762638.62-1.74sw8.69--
1:54 PM742636.93-3.48se13.03--
12:54 PM752334.68-3.48se9.56--
11:54 AM722332.17-3.48sse8.69--
10:54 AM702431.54-2.61e6.08--
9:54 AM672731.91-0.87ne3.48--
8:54 AM623836.1-0.87ne2.61--
7:54 AM535939.06---2.61--
6:54 AM446834.13-1.74ene3.48--
5:54 AM417333.02-1.74ne3.48--
4:54 AM417533.69-0.87nnw4.34--
3:54 AM427434.32-0.87n3.48--
1:54 AM465832.06-1.74ne4.34--
12:54 AM485432.16-0.87ne5.21--
High: 78ºf @2:54 PM    Low: 36ºf @5:54 AM     Approx. Precipitation / Rain Total: in.
Time (PDT)Temp. (ºf)Humidity (%)Dew Point (ºf)Barometer (inHG)Wind Speed (mph)Wind DirectionWind Gust (mph)1hr. Precip / Rain Total (in.)Snow Depth
11:54 PM514932.52-0.87nne5.21--
9:54 PM564534.96-1.74nne3.48--
8:54 PM633333.44-1.74ene6.08--
7:54 PM712331.33-1.74se6.95--
5:54 PM762133.23-0.87ssw5.21--
4:54 PM772235.23-0.87sw5.21--
3:54 PM772032.84-0.87wsw6.95--
2:54 PM782033.67-0.87w7.82--
1:54 PM772437.43-1.74w7.82--
12:54 PM752738.74-1.74w5.21--
11:54 AM722937.99-1.74ssw6.95--
10:54 AM673739.86-0.87wsw5.21--
9:54 AM634138.93-0.87w6.08--
8:54 AM595241.4-1.74wnw5.21--
7:54 AM526239.39---4.34--
6:54 AM408234.96-0.87n2.61--
5:54 AM368632.23-1.74ne4.34--
4:54 AM388433.6-0.87n4.34--
3:54 AM407833.7-1.74ne4.34--
2:54 AM437936.94-0.87ese3.48--
1:54 AM457336.87---4.34--
12:54 AM496336.96-0.87nne6.08--
High: 68ºf @2:54 PM    Low: 45ºf @4:54 AM     Approx. Precipitation / Rain Total: in.
Time (PDT)Temp. (ºf)Humidity (%)Dew Point (ºf)Barometer (inHG)Wind Speed (mph)Wind DirectionWind Gust (mph)1hr. Precip / Rain Total (in.)Snow Depth
11:54 PM515736.31-0.87ene7.82--
10:54 PM525234.93-2.61nw7.82--
9:54 PM544633.69-3.48nw8.69--
8:54 PM573932.29-2.61nnw13.03--
7:54 PM613633.86-2.61nw14.77--
6:54 PM653032.81-4.34-10.43--
5:54 PM662932.83-4.34n13.03--
4:54 PM662831.96-3.48nnw13.03--
3:54 PM672731.91-3.48nw13.03--
2:54 PM682934.55-3.48nnw11.3--
1:54 PM663033.67-4.34n12.17--
12:54 PM653234.42-3.48n11.3--
11:54 AM633836.99-3.48nnw12.17--
10:54 AM614137.13-3.48nw12.17--
9:54 AM584436.21-4.34nnw12.17--
8:54 AM565439.59-2.61wnw11.3--
7:54 AM536340.75-2.61wnw11.3--
6:54 AM477338.8-2.61nw7.82--
4:54 AM457738.23-0.87n6.08--
3:54 AM467337.84-0.87ene5.21--
2:54 AM486938.32-0.87n8.69--
1:54 AM496638.14-1.74nnw7.82--
12:54 AM477338.8-1.74n6.08--
High: 71ºf @2:54 PM    Low: 36ºf @4:54 AM     Approx. Precipitation / Rain Total: in.
Time (PDT)Temp. (ºf)Humidity (%)Dew Point (ºf)Barometer (inHG)Wind Speed (mph)Wind DirectionWind Gust (mph)1hr. Precip / Rain Total (in.)Snow Depth
11:54 PM467839.53-3.48ne6.95--
10:54 PM478141.48-0.87ne4.34--
9:54 PM507743.08-0.87ne4.34--
8:54 PM528146.35-0.87nne4.34--
7:54 PM586546.3---4.34--
6:54 PM644743.36-1.74e10.43--
5:54 PM673840.55-1.74sse6.95--
4:54 PM674444.36-2.61e7.82--
3:54 PM693439.45-3.48se10.43--
2:54 PM713239.65-3.48se9.56--
1:54 PM683337.82-2.61se7.82--
12:54 PM703339.56-4.34se11.3--
11:54 AM683640.04-4.34se11.3--
10:54 AM654040.09-1.74sse6.95--
9:54 AM614338.34---4.34--
8:54 AM604538.6-1.74sse4.34--
7:54 AM536039.49---2.61--
6:54 AM418135.62-0.87n3.48--
5:54 AM369033.36---3.48--
4:54 AM368933.08-1.74ne3.48--
3:54 AM378432.62-1.74n3.48--
2:54 AM388333.3---3.48--
1:54 AM407532.73-1.74ne3.48--
12:54 AM427032.94-1.74nne3.48--
High: 70ºf @3:54 PM    Low: 38ºf @2:54 AM     Approx. Precipitation / Rain Total: in.
Time (PDT)Temp. (ºf)Humidity (%)Dew Point (ºf)Barometer (inHG)Wind Speed (mph)Wind DirectionWind Gust (mph)1hr. Precip / Rain Total (in.)Snow Depth
11:54 PM446633.38-1.74nne4.34--
10:54 PM495734.44-3.48ne6.95--
8:54 PM564434.4-0.87n5.21--
7:54 PM633031.08---6.08--
6:54 PM692329.66-2.61n11.3--
5:54 PM692430.7-2.61nw11.3--
4:54 PM692430.7-2.61nne8.69--
3:54 PM702330.49-2.61ne9.56--
2:54 PM692228.57-2.61n11.3--
1:54 PM672327.98-4.34nne12.17--
12:54 PM652427.33-3.48nw14.77--
11:54 AM632829.38-4.34wnw14.77--
10:54 AM603330.82-5.21wnw14.77--
9:54 AM573630.31-4.34nw13.9--
8:54 AM553729.21-4.34wnw13.03--
7:54 AM525234.93-2.61nw7.82--
6:54 AM447235.56-0.87nnw5.21--
5:54 AM398033.36-0.87nnw4.34--
4:54 AM407833.7-0.87nnw4.34--
3:54 AM397933.05-1.74ne3.48--
2:54 AM387932.08-0.87ne6.08--
1:54 AM407332.06-1.74ne4.34--
12:54 AM465932.48-2.61wnw5.21--
High: 63ºf @2:54 PM    Low: 39ºf @5:54 AM     Approx. Precipitation / Rain Total: in.
Time (PDT)Temp. (ºf)Humidity (%)Dew Point (ºf)Barometer (inHG)Wind Speed (mph)Wind DirectionWind Gust (mph)1hr. Precip / Rain Total (in.)Snow Depth
11:54 PM485432.16-1.74wnw6.08--
10:54 PM485432.16-0.87wnw5.21--
9:54 PM524430.77-2.61nw8.69--
8:54 PM505835.81-0.87nw5.21--
7:54 PM525737.24-0.87w7.82--
6:54 PM584335.63-0.87nw7.82--
5:54 PM574133.54-1.74nw10.43--
4:54 PM574133.54-2.61nnw9.56--
3:54 PM594235.94-2.61nnw13.03--
2:54 PM633937.65-4.34nnw12.17--
1:54 PM604639.16-3.48nnw13.03--
12:54 PM585039.47-5.21wnw13.9--
11:54 AM565640.53-4.34nw16.51--
10:54 AM467036.77-3.48ne13.03--
8:54 AM467337.84-4.34nnw16.51--
6:54 AM398835.75-3.48n15.64--
5:54 AM398835.75-4.34n13.03--
4:54 AM408034.34-4.34n11.3--
3:54 AM426932.58-3.48nnw12.17--
2:54 AM436030.08-5.21nnw18.25--
1:54 AM436230.88-4.34nnw16.51--
12:54 AM436230.88-3.48nw18.25--
High: 55ºf @1:54 PM    Low: 38ºf @6:54 AM     Approx. Precipitation / Rain Total: in.
Time (PDT)Temp. (ºf)Humidity (%)Dew Point (ºf)Barometer (inHG)Wind Speed (mph)Wind DirectionWind Gust (mph)1hr. Precip / Rain Total (in.)Snow Depth
11:54 PM446131.43-6.08nw17.38--
10:54 PM456031.96-4.34nw12.17--
9:54 PM465932.48-3.48nnw15.64--
8:54 PM465731.63-2.61nnw14.77--
7:54 PM485231.22-2.61nnw13.9--
6:54 PM514429.86-3.48n13.03--
5:54 PM514228.72-3.48n19.12--
4:54 PM514228.72-4.34n13.03--
3:54 PM553729.21-4.34n16.51--
2:54 PM534129.94-4.34n13.9--
1:54 PM554131.74-5.21nw19.12--
12:54 PM544130.84-6.08nw16.51--
11:54 AM524732.4-4.34nw16.51--
10:54 AM485532.61-5.21wnw16.51--
9:54 AM436130.48-6.95nw21.72--
8:54 AM436331.28-7.82nw16.51--
7:54 AM397230.75-5.21n15.64--
6:54 AM387430.46-5.21nnw15.64--
5:54 AM387330.13-4.34nw16.51--
4:54 AM387430.46-5.21nnw15.64--
3:54 AM387430.46-2.61nw11.3--
2:54 AM387029.1-3.48nw17.38--
1:54 AM387229.79-3.48nnw13.03--
12:54 AM396929.71-4.34nw15.64--
High: 47ºf @6:54 PM    Low: 39ºf @11:54 PM     Approx. Precipitation / Rain Total: in.
Time (PDT)Temp. (ºf)Humidity (%)Dew Point (ºf)Barometer (inHG)Wind Speed (mph)Wind DirectionWind Gust (mph)1hr. Precip / Rain Total (in.)Snow Depth
11:54 PM396829.35-3.48nw11.3--
10:54 PM406529.2-3.48nw13.9--
9:54 PM416329.38-3.48nnw13.9--
8:54 PM425326.12-3.48nw16.51--
7:54 PM444423.5-5.21n19.12--
6:54 PM473822.73-4.34nw13.03--
Past Weather Disclaimer Note regarding "Approx. Precipitation / Rain Total"

Currently

Partly Cloudy 66°F
30.04in
Barometer
68%
Humidity
North 0.0mph
Wind
Partly Cloudy

Past Weather Nearby

More Local Information

Bookmark and Share

Go Ad Free - Become a Member